Location: Newark
(51.7378°N, 19.8125°E)
Time: 14:11:41
(UTC+00:00)

Envisat - Pass Details

Date: 09 December 2019
Orbit: 764 x 766 km, 98.1° (Epoch: 18 January)

Event Time Altitude Azimuth Distance (km) Brightness Sun altitude
Rises 18:15:40 0° 223° (SW) 3,226 6.7 -33.5°
Reaches altitude 10° 18:19:35 10° 254° (WSW) 2,307 6.2 -34.1°
Maximum altitude 18:21:31 12° 276° (W) 2,169 6.1 -34.4°
Drops below altitude 10° 18:23:27 10° 299° (WNW) 2,313 6.2 -34.7°
Sets 18:27:25 0° 330° (NNW) 3,247 6.7 -35.3°
